START_TIME,STEP,MOV.,M29,t_acc.,H22,t_acc.,H26,t_acc.,H30,t_acc.
1979-07-07 09:00:32.520 ,0,0,0.,24.0,0.,24.0,0.,24.0,0.,24.0
1979-07-07 09:00:56.520 ,0,1,0.,24.0,0.,24.0,0.,24.0,0.,24.0
1979-07-07 09:01:20.520 ,0,0,0.,24.0,0.,24.0,0.,24.0,0.,24.0
1979-07-07 09:01:44.520 ,1,1,0.,24.0,0.,24.0,0.,24.0,0.,24.0
1979-07-07 09:02:08.520 ,1,0,0.,24.0,0.,24.0,0.,24.0,0.,24.0
1979-07-07 09:02:32.520 ,2,1,0.,24.0,0.,24.0,0.,24.0,0.,24.0
1979-07-07 09:02:56.520 ,2,0,0.,24.0,0.,24.0,0.,24.0,0.,24.0
1979-07-07 09:03:20.520 ,3,1,0.,24.0,0.,24.0,0.,24.0,0.,24.0
1979-07-07 09:03:44.520 ,0,0,0.,24.0,0.,24.0,0.,24.0,0.,24.0
1979-07-07 09:04:16.920 ,0,0,0.,24.0,0.,24.0,0.,24.0,0.,24.0
1979-07-07 09:04:32.520 ,0,0,0.,24.0,0.,24.0,0.,24.0,0.,24.0
1979-07-07 09:04:56.520 ,5,1,0.,24.0,0.,24.0,0.,24.0,0.,24.0
1979-07-07 09:05:20.520 ,5,0,0.,24.0,0.,24.0,0.,24.0,0.,24.0
1979-07-07 09:05:44.520 ,6,1,0.,24.0,0.,24.0,0.,24.0,0.,24.0
1979-07-07 09:06:08.520 ,6,0,0.,24.0,0.,24.0,0.,24.0,0.,24.0
1979-07-07 09:06:32.520 ,7,0,0.,24.0,0.,24.0,0.,24.0,0.,24.0
1979-07-07 09:06:56.520 ,7,0,0.,24.0,0.,24.0,0.,24.0,0.,24.0
1979-07-07 09:07:20.520 ,5,1,0.,24.0,0.,24.0,0.,24.0,0.,24.0
1979-07-07 09:07:44.520 ,1,1,0.,24.0,0.,24.0,0.,24.0,0.,24.0
1979-07-07 09:08:08.520 ,2,1,0.,24.0,0.,24.0,0.,24.0,0.,24.0
1979-07-07 09:08:32.520 ,6,1,0.,24.0,0.,24.0,0.,24.0,0.,24.0
1979-07-07 09:08:56.520 ,5,1,0.,24.0,0.,24.0,0.,24.0,0.,24.0
1979-07-07 09:09:20.520 ,1,1,0.,24.0,0.,24.0,0.,24.0,0.,24.0
1979-07-07 09:09:44.520 ,2,1,0.,24.0,0.,24.0,0.,24.0,0.,24.0
1979-07-07 09:10:08.520 ,6,1,0.,24.0,0.,24.0,0.,24.0,0.,24.0
1979-07-07 09:10:32.520 ,5,1,0.,24.0,0.,24.0,0.,24.0,0.,24.0
1979-07-07 09:10:56.520 ,1,1,0.,24.0,0.,24.0,0.,24.0,0.,24.0
1979-07-07 09:11:20.520 ,2,1,0.,24.0,0.,24.0,0.,24.0,0.,24.0
1979-07-07 09:11:44.520 ,6,1,0.,24.0,0.,24.0,0.,24.0,0.,24.0
1979-07-07 09:12:08.520 ,5,1,0.,24.0,0.,24.0,0.,24.0,0.,24.0
1979-07-07 09:12:32.520 ,1,1,0.,24.0,0.,24.0,0.,24.0,0.,24.0
1979-07-07 09:12:56.520 ,2,1,0.,24.0,0.,24.0,0.,24.0,0.,24.0
1979-07-07 09:13:20.520 ,6,1,0.,24.0,0.,24.0,0.,24.0,0.,24.0
1979-07-07 09:13:44.520 ,5,1,0.,24.0,0.,24.0,0.,24.0,0.,24.0
1979-07-07 09:14:08.520 ,1,1,0.,24.0,0.,24.0,0.,24.0,0.,24.0
1979-07-07 09:14:32.520 ,2,1,0.,24.0,0.,24.0,0.,24.0,0.,24.0
1979-07-07 09:14:56.520 ,6,1,0.,24.0,0.,24.0,0.,24.0,0.,24.0
1979-07-07 09:15:20.520 ,5,1,0.,24.0,0.,24.0,0.,24.0,0.,24.0
1979-07-07 09:15:44.520 ,1,1,0.,24.0,0.,24.0,0.,24.0,0.,24.0
1979-07-07 09:16:08.520 ,2,1,0.,24.0,0.,24.0,0.,24.0,0.,24.0
1979-07-07 09:16:32.520 ,6,1,0.,24.0,0.,24.0,0.,24.0,0.,24.0
1979-07-07 09:16:56.520 ,5,1,0.,24.0,0.,24.0,0.,24.0,0.,24.0
1979-07-07 09:17:20.520 ,1,1,0.,24.0,0.,24.0,0.,24.0,0.,24.0
1979-07-07 09:17:44.520 ,0,0,0.,24.0,0.,24.0,0.,24.0,0.,24.0
1979-07-07 09:18:08.520 ,0,0,0.,24.0,0.,24.0,0.,24.0,0.,24.0
1979-07-07 09:18:32.520 ,5,1,0.,24.0,0.,24.0,0.,24.0,0.,24.0
1979-07-07 09:18:56.520 ,5,0,0.,24.0,0.,24.0,0.,24.0,0.,24.0
1979-07-07 09:19:20.520 ,4,1,0.,24.0,0.,24.0,0.,24.0,0.,24.0
1979-07-07 09:19:44.520 ,4,0,0.,24.0,0.,24.0,0.,24.0,0.,24.0
1979-07-07 09:20:08.520 ,3,1,0.,24.0,0.,24.0,0.,24.0,0.,24.0
1979-07-07 09:20:32.520 ,3,0,0.,24.0,0.,24.0,0.,24.0,0.,24.0
1979-07-07 09:20:56.520 ,2,1,0.,24.0,0.,24.0,0.,24.0,0.,24.0
1979-07-07 09:21:20.520 ,2,0,0.,24.0,0.,24.0,0.,24.0,0.,24.0
1979-07-07 09:21:44.520 ,1,1,0.,24.0,0.,24.0,0.,24.0,0.,24.0
1979-07-07 09:22:08.520 ,1,0,0.,24.0,0.,24.0,0.,24.0,0.,24.0
1979-07-07 09:22:32.520 ,0,1,0.,24.0,0.,24.0,0.,24.0,0.,24.0
1979-07-07 09:22:56.520 ,0,0,0.,24.0,0.,24.0,0.,24.0,0.,24.0
1979-07-07 09:23:20.520 ,0,1,0.,24.0,0.,24.0,0.,24.0,0.,24.0
1979-07-07 09:23:44.520 ,0,0,0.,24.0,0.,24.0,0.,24.0,0.,24.0
1979-07-07 09:24:08.520 ,1,1,0.,24.0,0.,24.0,0.,24.0,0.,24.0
1979-07-07 09:24:32.520 ,1,0,0.,24.0,0.,24.0,0.,24.0,0.,24.0
1979-07-07 09:24:56.520 ,2,1,0.,24.0,0.,24.0,0.,24.0,0.,24.0
1979-07-07 09:25:20.520 ,2,0,0.,24.0,0.,24.0,0.,24.0,0.,24.0
1979-07-07 09:25:44.520 ,3,1,0.,24.0,0.,24.0,0.,24.0,0.,24.0
1979-07-07 09:26:08.520 ,3,0,0.,24.0,0.,24.0,0.,24.0,0.,24.0
1979-07-07 09:26:32.520 ,4,1,0.,24.0,0.,24.0,0.,24.0,0.,24.0
1979-07-07 09:26:56.520 ,4,0,0.,24.0,0.,24.0,0.,24.0,0.,24.0
1979-07-07 09:27:20.520 ,5,1,0.,24.0,0.,24.0,0.,24.0,0.,24.0
1979-07-07 09:27:44.520 ,5,0,0.,24.0,0.,24.0,0.,24.0,0.,24.0
1979-07-07 09:28:08.520 ,6,1,0.,24.0,0.,24.0,0.,24.0,0.,24.0
1979-07-07 09:28:32.520 ,6,0,0.,24.0,0.,24.0,0.,24.0,0.,24.0
1979-07-07 09:28:56.520 ,7,1,0.,24.0,0.,24.0,0.,24.0,0.,24.0
1979-07-07 09:29:20.520 ,7,0,0.,24.0,0.,24.0,0.,24.0,0.,24.0
1979-07-07 09:29:44.520 ,7,1,0.,24.0,0.,24.0,0.,24.0,0.,24.0
1979-07-07 09:30:08.520 ,7,0,0.,24.0,0.,24.0,0.,24.0,0.,24.0
1979-07-07 09:30:32.520 ,6,1,0.,24.0,0.,24.0,0.,24.0,0.,24.0
1979-07-07 09:30:56.520 ,6,0,0.,24.0,0.,24.0,0.,24.0,0.,24.0
1979-07-07 09:31:20.520 ,5,1,0.,24.0,0.,24.0,0.,24.0,0.,24.0
1979-07-07 09:31:44.520 ,5,0,0.,24.0,0.,24.0,0.,24.0,0.,24.0
1979-07-07 09:32:08.520 ,4,1,0.,24.0,0.,24.0,0.,24.0,0.,24.0
1979-07-07 09:32:32.520 ,4,0,0.,24.0,0.,24.0,0.,24.0,0.,24.0
1979-07-07 09:32:56.520 ,3,1,0.,24.0,0.,24.0,0.,24.0,0.,24.0
1979-07-07 09:33:20.520 ,3,0,0.,24.0,0.,24.0,0.,24.0,0.,24.0
1979-07-07 09:33:44.520 ,2,1,0.,24.0,0.,24.0,0.,24.0,0.,24.0
1979-07-07 09:34:08.520 ,2,0,0.,24.0,0.,24.0,0.,24.0,0.,24.0
1979-07-07 09:34:32.520 ,1,1,0.,24.0,0.,24.0,0.,24.0,0.,24.0
1979-07-07 09:34:56.520 ,1,0,0.,24.0,0.,24.0,0.,24.0,0.,24.0
1979-07-07 09:35:20.520 ,0,1,0.,24.0,0.,24.0,0.,24.0,0.,24.0
1979-07-07 09:35:44.520 ,0,0,0.,24.0,0.,24.0,0.,24.0,0.,24.0
1979-07-07 09:36:08.520 ,0,1,0.,24.0,0.,24.0,0.,24.0,0.,24.0
1979-07-07 09:36:32.520 ,0,0,0.,24.0,0.,24.0,0.,24.0,0.,24.0
1979-07-07 09:36:56.520 ,1,1,0.,24.0,0.,24.0,0.,24.0,0.,24.0
1979-07-07 09:37:20.520 ,1,0,0.,24.0,0.,24.0,0.,24.0,0.,24.0
1979-07-07 09:37:44.520 ,2,1,0.,24.0,0.,24.0,0.,24.0,0.,24.0
1979-07-07 09:38:08.520 ,2,0,0.,24.0,0.,24.0,0.,24.0,0.,24.0
1979-07-07 09:38:32.520 ,3,1,0.,24.0,0.,24.0,0.,24.0,0.,24.0
1979-07-07 09:38:56.520 ,3,0,0.,24.0,0.,24.0,0.,24.0,0.,24.0
1979-07-07 09:39:20.520 ,4,1,0.,24.0,0.,24.0,0.,24.0,0.,24.0
1979-07-07 09:39:44.520 ,4,0,0.,24.0,0.,24.0,0.,24.0,0.,24.0
1979-07-07 09:40:08.520 ,5,1,0.,24.0,0.,24.0,0.,24.0,0.,24.0
1979-07-07 09:40:32.520 ,5,0,0.,24.0,0.,24.0,0.,24.0,0.,24.0
1979-07-07 09:40:56.520 ,6,1,0.,24.0,0.,24.0,0.,24.0,0.,24.0
1979-07-07 09:41:20.520 ,6,0,0.,24.0,0.,24.0,0.,24.0,0.,24.0
1979-07-07 09:41:44.520 ,7,1,0.,24.0,0.,24.0,0.,24.0,0.,24.0
1979-07-07 09:42:08.520 ,7,0,0.,24.0,0.,24.0,0.,24.0,0.,24.0
1979-07-07 09:42:32.520 ,7,1,0.,24.0,0.,24.0,0.,24.0,0.,24.0
1979-07-07 09:42:56.520 ,7,0,0.,24.0,0.,24.0,0.,24.0,0.,24.0
1979-07-07 09:43:20.520 ,6,1,0.,24.0,0.,24.0,0.,24.0,0.,24.0
1979-07-07 09:43:44.520 ,6,0,0.,24.0,0.,24.0,0.,24.0,0.,24.0
1979-07-07 09:44:08.520 ,5,1,0.,24.0,0.,24.0,0.,24.0,0.,24.0
1979-07-07 09:44:32.520 ,5,0,0.,24.0,0.,24.0,0.,24.0,0.,24.0
1979-07-07 09:44:56.520 ,4,1,0.,24.0,0.,24.0,0.,24.0,0.,24.0
1979-07-07 09:45:20.520 ,4,0,0.,24.0,0.,24.0,0.,24.0,0.,24.0
1979-07-07 09:45:44.520 ,3,1,0.,24.0,0.,24.0,0.,24.0,0.,24.0
1979-07-07 09:46:08.520 ,3,0,0.,24.0,0.,24.0,0.,24.0,0.,24.0
1979-07-07 09:46:32.520 ,2,1,0.,24.0,0.,24.0,0.,24.0,0.,24.0
1979-07-07 09:46:56.520 ,2,0,0.,24.0,0.,24.0,0.,24.0,0.,24.0
1979-07-07 09:47:20.520 ,1,1,0.,24.0,0.,24.0,0.,24.0,0.,24.0
1979-07-07 09:47:44.520 ,1,0,0.,24.0,0.,24.0,0.,24.0,0.,24.0
1979-07-07 09:48:08.520 ,0,1,0.,24.0,0.,24.0,0.,24.0,0.,24.0
1979-07-07 09:48:32.520 ,0,0,0.,24.0,0.,24.0,0.,24.0,0.,24.0
1979-07-07 09:48:56.520 ,0,1,0.,24.0,0.,24.0,0.,24.0,0.,24.0
1979-07-07 09:49:20.520 ,0,0,0.,24.0,0.,24.0,0.,24.0,0.,24.0
1979-07-07 09:49:44.520 ,1,1,0.,24.0,0.,24.0,0.,24.0,0.,24.0
1979-07-07 09:50:08.520 ,1,0,0.,24.0,0.,24.0,0.,24.0,0.,24.0
1979-07-07 09:50:32.520 ,2,1,0.,24.0,0.,24.0,0.,24.0,0.,24.0
1979-07-07 09:50:56.520 ,2,0,0.,24.0,0.,24.0,0.,24.0,0.,24.0
1979-07-07 09:51:20.520 ,3,1,0.,24.0,0.,24.0,0.,24.0,0.,24.0
1979-07-07 09:51:44.520 ,3,0,0.,24.0,0.,24.0,0.,24.0,0.,24.0
1979-07-07 09:52:08.520 ,4,1,0.,24.0,0.,24.0,0.,24.0,0.,24.0
1979-07-07 09:52:32.520 ,4,0,0.,24.0,0.,24.0,0.,24.0,0.,24.0
1979-07-07 09:52:56.520 ,5,1,0.,24.0,0.,24.0,0.,24.0,0.,24.0
1979-07-07 09:53:20.520 ,0,0,0.,24.0,0.,24.0,0.,24.0,0.,24.0
1979-07-07 09:53:44.520 ,6,1,0.,24.0,0.,24.0,0.,24.0,0.,24.0
1979-07-07 09:54:08.520 ,6,0,0.,24.0,0.,24.0,0.,24.0,0.,24.0
1979-07-07 09:54:32.520 ,7,0,0.,24.0,0.,24.0,0.,24.0,0.,24.0
1979-07-07 09:54:56.520 ,7,0,0.,24.0,0.,24.0,0.,24.0,0.,24.0
1979-07-07 09:55:20.520 ,5,1,0.,24.0,0.,24.0,0.,24.0,0.,24.0
1979-07-07 09:55:44.520 ,1,1,0.,24.0,0.,24.0,0.,24.0,0.,24.0
1979-07-07 09:56:08.520 ,2,1,0.,24.0,0.,24.0,0.,24.0,0.,24.0
1979-07-07 09:56:32.520 ,6,1,0.,24.0,0.,24.0,0.,24.0,0.,24.0
1979-07-07 09:56:56.520 ,5,1,0.,24.0,0.,24.0,0.,24.0,0.,24.0
1979-07-07 09:57:20.520 ,1,1,0.,24.0,0.,24.0,0.,24.0,0.,24.0
1979-07-07 09:57:44.520 ,2,1,0.,24.0,0.,24.0,0.,24.0,0.,24.0
1979-07-07 09:58:08.520 ,6,1,0.,24.0,0.,24.0,0.,24.0,0.,24.0
1979-07-07 09:58:32.520 ,5,1,0.,24.0,0.,24.0,0.,24.0,0.,24.0
1979-07-07 09:58:56.520 ,1,1,0.,24.0,0.,24.0,0.,24.0,0.,24.0
1979-07-07 09:59:20.520 ,2,1,0.,24.0,0.,24.0,0.,24.0,0.,24.0
1979-07-07 09:59:44.520 ,6,1,0.,24.0,0.,24.0,0.,24.0,0.,24.0
1979-07-07 10:00:08.520 ,5,1,0.,24.0,0.,24.0,0.,24.0,0.,24.0
1979-07-07 10:00:32.520 ,1,1,0.,24.0,0.,24.0,0.,24.0,0.,24.0
1979-07-07 10:00:56.520 ,2,1,0.,24.0,0.,24.0,0.,24.0,0.,24.0
1979-07-07 10:01:20.520 ,6,1,0.,24.0,0.,24.0,0.,24.0,0.,24.0
1979-07-07 10:01:44.520 ,5,1,0.,24.0,0.,24.0,0.,24.0,0.,24.0
1979-07-07 10:02:08.520 ,1,1,0.,24.0,0.,24.0,0.,24.0,0.,24.0
1979-07-07 10:02:32.520 ,2,1,0.,24.0,0.,24.0,0.,24.0,0.,24.0
1979-07-07 10:02:56.520 ,6,1,0.,24.0,0.,24.0,0.,24.0,0.,24.0
1979-07-07 10:03:20.520 ,5,1,0.,24.0,0.,24.0,0.,24.0,0.,24.0
1979-07-07 10:03:44.520 ,1,1,0.,24.0,0.,24.0,0.,24.0,0.,24.0
1979-07-07 10:04:08.520 ,2,1,0.,24.0,0.,24.0,0.,24.0,0.,24.0
1979-07-07 10:04:32.520 ,6,1,0.,24.0,0.,24.0,0.,24.0,0.,24.0
1979-07-07 10:04:56.520 ,5,1,0.,24.0,0.,24.0,0.,24.0,0.,24.0
1979-07-07 10:05:20.520 ,1,1,0.,24.0,0.,24.0,0.,24.0,0.,24.0
1979-07-07 10:05:44.520 ,0,0,0.,24.0,0.,24.0,0.,24.0,0.,24.0
1979-07-07 10:06:08.520 ,0,0,0.,24.0,0.,24.0,0.,24.0,0.,24.0
1979-07-07 10:06:32.520 ,5,1,0.,24.0,0.,24.0,0.,24.0,0.,24.0
1979-07-07 10:06:56.520 ,5,0,0.,24.0,0.,24.0,0.,24.0,0.,24.0
1979-07-07 10:07:20.520 ,4,1,0.,24.0,0.,24.0,0.,24.0,0.,24.0
1979-07-07 10:07:44.520 ,4,0,0.,24.0,0.,24.0,0.,24.0,0.,24.0
1979-07-07 10:08:08.520 ,3,1,0.,24.0,0.,24.0,0.,24.0,0.,24.0
1979-07-07 10:08:32.520 ,3,0,0.,24.0,0.,24.0,0.,24.0,0.,24.0
1979-07-07 10:08:56.520 ,2,1,0.,24.0,0.,24.0,0.,24.0,0.,24.0
1979-07-07 10:09:20.520 ,2,0,0.,24.0,0.,24.0,0.,24.0,0.,24.0
1979-07-07 10:09:44.520 ,1,1,0.,24.0,0.,24.0,0.,24.0,0.,24.0
1979-07-07 10:10:08.520 ,1,0,0.,24.0,0.,24.0,0.,24.0,0.,24.0
1979-07-07 10:10:32.520 ,0,1,0.,24.0,0.,24.0,0.,24.0,0.,24.0
1979-07-07 10:10:56.520 ,0,0,0.,24.0,0.,24.0,0.,24.0,0.,24.0
1979-07-07 10:11:20.520 ,0,1,0.,24.0,0.,24.0,0.,24.0,0.,24.0
1979-07-07 10:11:44.520 ,0,0,0.,24.0,0.,24.0,0.,24.0,0.,24.0
1979-07-07 10:12:08.520 ,1,1,0.,24.0,0.,24.0,0.,24.0,0.,24.0
1979-07-07 10:12:32.520 ,1,0,0.,24.0,0.,24.0,0.,24.0,0.,24.0
1979-07-07 10:12:56.520 ,2,1,0.,24.0,0.,24.0,0.,24.0,0.,24.0
1979-07-07 10:13:20.520 ,2,0,0.,24.0,0.,24.0,0.,24.0,0.,24.0
1979-07-07 10:13:44.520 ,3,1,0.,24.0,0.,24.0,0.,24.0,0.,24.0
1979-07-07 10:14:08.520 ,3,0,0.,24.0,0.,24.0,0.,24.0,0.,24.0
1979-07-07 10:14:32.520 ,4,1,0.,24.0,0.,24.0,0.,24.0,0.,24.0
1979-07-07 10:14:56.520 ,4,0,0.,24.0,0.,24.0,0.,24.0,0.,24.0
1979-07-07 10:15:20.520 ,5,1,0.,24.0,0.,24.0,0.,24.0,0.,24.0
1979-07-07 10:15:44.520 ,5,0,0.,24.0,0.,24.0,0.,24.0,0.,24.0
1979-07-07 10:16:08.520 ,6,1,0.,24.0,0.,24.0,0.,24.0,0.,24.0
1979-07-07 10:16:32.520 ,6,0,0.,24.0,0.,24.0,0.,24.0,0.,24.0
1979-07-07 10:16:56.520 ,7,1,0.,24.0,0.,24.0,0.,24.0,0.,24.0
1979-07-07 10:17:20.520 ,7,0,0.,24.0,0.,24.0,0.,24.0,0.,24.0
1979-07-07 10:17:44.520 ,7,1,0.,24.0,0.,24.0,0.,24.0,0.,24.0
1979-07-07 10:18:08.520 ,7,0,0.,24.0,0.,24.0,0.,24.0,0.,24.0
1979-07-07 10:18:32.520 ,6,1,0.,24.0,0.,24.0,0.,24.0,0.,24.0
1979-07-07 10:18:56.520 ,6,0,0.,24.0,0.,24.0,0.,24.0,0.,24.0
1979-07-07 10:19:20.520 ,5,1,0.,24.0,0.,24.0,0.,24.0,0.,24.0
1979-07-07 10:19:44.520 ,5,0,0.,24.0,0.,24.0,0.,24.0,0.,24.0
1979-07-07 10:20:08.520 ,4,1,0.,24.0,0.,24.0,0.,24.0,0.,24.0
1979-07-07 10:20:32.520 ,4,0,0.,24.0,0.,24.0,0.,24.0,0.,24.0
1979-07-07 10:20:56.520 ,3,1,0.,24.0,0.,24.0,0.,24.0,0.,24.0
1979-07-07 10:21:20.520 ,3,0,0.,24.0,0.,24.0,0.,24.0,0.,24.0
1979-07-07 10:21:44.520 ,2,1,0.,24.0,0.,24.0,0.,24.0,0.,24.0
1979-07-07 10:22:08.520 ,2,0,0.,24.0,0.,24.0,0.,24.0,0.,24.0
1979-07-07 10:22:32.520 ,1,1,0.,24.0,0.,24.0,0.,24.0,0.,24.0
1979-07-07 10:22:56.520 ,1,0,0.,24.0,0.,24.0,0.,24.0,0.,24.0
1979-07-07 10:23:20.520 ,0,1,0.,24.0,0.,24.0,0.,24.0,0.,24.0
1979-07-07 10:23:44.520 ,0,0,0.,24.0,0.,24.0,0.,24.0,0.,24.0
1979-07-07 10:24:08.520 ,0,1,0.,24.0,0.,24.0,0.,24.0,0.,24.0
1979-07-07 10:24:32.520 ,0,0,0.,24.0,0.,24.0,0.,24.0,0.,24.0
1979-07-07 10:24:56.520 ,1,0,,0,,0,,0,,0
1979-07-07 10:25:20.520 ,1,0,0.,24.0,0.,24.0,0.,24.0,0.,24.0
1979-07-07 10:25:44.520 ,2,1,0.,24.0,0.,24.0,0.,24.0,0.,24.0
1979-07-07 10:26:08.520 ,2,0,0.,24.0,0.,24.0,0.,24.0,0.,24.0
1979-07-07 10:26:32.520 ,3,1,0.,24.0,0.,24.0,0.,24.0,0.,24.0
1979-07-07 10:26:56.520 ,3,0,0.,24.0,0.,24.0,0.,24.0,0.,24.0
1979-07-07 10:27:20.520 ,4,1,0.,24.0,0.,24.0,0.,24.0,0.,24.0
1979-07-07 10:27:44.520 ,4,0,0.,24.0,0.,24.0,0.,24.0,0.,24.0
1979-07-07 10:28:08.520 ,5,1,0.,24.0,0.,24.0,0.,24.0,0.,24.0
1979-07-07 10:28:32.520 ,5,0,0.,24.0,0.,24.0,0.,24.0,0.,24.0
1979-07-07 10:28:56.520 ,6,1,0.,24.0,0.,24.0,0.,24.0,0.,24.0
1979-07-07 10:29:20.520 ,6,0,0.,24.0,0.,24.0,0.,24.0,0.,24.0
1979-07-07 10:29:44.520 ,7,1,0.,24.0,0.,24.0,0.,24.0,0.,24.0
1979-07-07 10:30:08.520 ,7,0,0.,24.0,0.,24.0,0.,24.0,0.,24.0
1979-07-07 10:30:32.520 ,7,1,0.,24.0,0.,24.0,0.,24.0,0.,24.0
1979-07-07 10:30:56.520 ,7,0,0.,24.0,0.,24.0,0.,24.0,0.,24.0
1979-07-07 10:31:20.520 ,6,1,0.,24.0,0.,24.0,0.,24.0,0.,24.0
1979-07-07 10:31:44.520 ,6,0,0.,24.0,0.,24.0,0.,24.0,0.,24.0
1979-07-07 10:32:08.520 ,5,1,0.,24.0,0.,24.0,0.,24.0,0.,24.0
1979-07-07 10:32:32.520 ,5,0,0.,24.0,0.,24.0,0.,24.0,0.,24.0
1979-07-07 10:32:56.520 ,4,1,0.,24.0,0.,24.0,0.,24.0,0.,24.0
1979-07-07 10:33:20.520 ,4,0,0.,24.0,0.,24.0,0.,24.0,0.,24.0
1979-07-07 10:33:44.520 ,3,1,0.,24.0,0.,24.0,0.,24.0,0.,24.0
1979-07-07 10:34:08.520 ,3,0,0.,24.0,0.,24.0,0.,24.0,0.,24.0
1979-07-07 10:34:32.520 ,2,1,0.,24.0,0.,24.0,0.,24.0,0.,24.0
1979-07-07 10:34:56.520 ,2,0,0.,24.0,0.,24.0,0.,24.0,0.,24.0
1979-07-07 10:35:20.520 ,1,1,0.,24.0,0.,24.0,0.,24.0,0.,24.0
1979-07-07 10:35:44.520 ,1,0,0.,24.0,0.,24.0,0.,24.0,0.,24.0
1979-07-07 10:36:08.520 ,0,1,0.,24.0,0.,24.0,0.,24.0,0.,24.0
1979-07-07 10:36:32.520 ,0,0,0.,24.0,0.,24.0,0.,24.0,0.,24.0
1979-07-07 10:36:56.520 ,0,1,0.,24.0,0.,24.0,0.,24.0,0.,24.0
1979-07-07 10:37:20.520 ,0,0,0.,24.0,0.,24.0,0.,24.0,0.,24.0
1979-07-07 10:37:44.520 ,1,1,0.,24.0,0.,24.0,0.,24.0,0.,24.0
1979-07-07 10:38:08.520 ,1,0,0.,24.0,0.,24.0,0.,24.0,0.,24.0
1979-07-07 10:38:32.520 ,2,1,0.,24.0,0.,24.0,0.,24.0,0.,24.0
1979-07-07 10:38:56.520 ,2,0,0.,24.0,0.,24.0,0.,24.0,0.,24.0
1979-07-07 10:39:20.520 ,3,1,0.,24.0,0.,24.0,0.,24.0,0.,24.0
1979-07-07 10:39:44.520 ,3,0,0.,24.0,0.,24.0,0.,24.0,0.,24.0
1979-07-07 10:40:08.520 ,4,1,0.,24.0,0.,24.0,0.,24.0,0.,24.0
1979-07-07 10:40:32.520 ,4,0,0.,24.0,0.,24.0,0.,24.0,0.,24.0
1979-07-07 10:40:56.520 ,5,1,0.,24.0,0.,24.0,0.,24.0,0.,24.0
1979-07-07 10:41:20.520 ,5,0,0.,24.0,0.,24.0,0.,24.0,0.,24.0
1979-07-07 10:41:44.520 ,6,1,0.,24.0,0.,24.0,0.,24.0,0.,24.0
1979-07-07 10:42:08.520 ,6,0,0.,24.0,0.,24.0,0.,24.0,0.,24.0
1979-07-07 10:42:32.520 ,7,0,0.,24.0,0.,24.0,0.,24.0,0.,24.0
1979-07-07 10:42:56.520 ,7,0,0.,24.0,0.,24.0,0.,24.0,0.,24.0
1979-07-07 10:43:20.520 ,5,1,0.,24.0,0.,24.0,0.,24.0,0.,24.0
1979-07-07 10:43:44.520 ,1,1,0.,24.0,0.,24.0,0.,24.0,0.,24.0
1979-07-07 10:44:08.520 ,2,1,0.,24.0,0.,24.0,0.,24.0,0.,24.0
1979-07-07 10:44:32.520 ,6,1,0.,24.0,0.,24.0,0.,24.0,0.,24.0
1979-07-07 10:44:56.520 ,5,1,0.,24.0,0.,24.0,0.,24.0,0.,24.0
1979-07-07 10:45:20.520 ,1,1,0.,24.0,0.,24.0,0.,24.0,0.,24.0
1979-07-07 10:45:44.520 ,2,1,0.,24.0,0.,24.0,0.,24.0,0.,24.0
1979-07-07 10:46:08.520 ,6,1,0.,24.0,0.,24.0,0.,24.0,0.,24.0
1979-07-07 10:46:32.520 ,5,1,0.,24.0,0.,24.0,0.,24.0,0.,24.0
1979-07-07 10:46:56.520 ,1,1,0.,24.0,0.,24.0,0.,24.0,0.,24.0
1979-07-07 10:47:20.520 ,2,1,0.,24.0,0.,24.0,0.,24.0,0.,24.0
1979-07-07 10:47:44.520 ,6,1,0.,24.0,0.,24.0,0.,24.0,0.,24.0
1979-07-07 10:48:08.520 ,5,1,0.,24.0,0.,24.0,0.,24.0,0.,24.0
1979-07-07 10:48:32.520 ,1,1,0.,24.0,0.,24.0,0.,24.0,0.,24.0
1979-07-07 10:48:56.520 ,2,1,0.,24.0,0.,24.0,0.,24.0,0.,24.0
1979-07-07 10:49:20.520 ,6,1,0.,24.0,0.,24.0,0.,24.0,0.,24.0
1979-07-07 10:49:44.520 ,5,1,0.,24.0,0.,24.0,0.,24.0,0.,24.0
1979-07-07 10:50:08.520 ,1,1,0.,24.0,0.,24.0,0.,24.0,0.,24.0
1979-07-07 10:50:32.520 ,2,1,0.,24.0,0.,24.0,0.,24.0,0.,24.0
1979-07-07 10:50:56.520 ,6,1,0.,24.0,0.,24.0,0.,24.0,0.,24.0
1979-07-07 10:51:20.520 ,5,1,0.,24.0,0.,24.0,0.,24.0,0.,24.0
1979-07-07 10:51:44.520 ,1,1,0.,24.0,0.,24.0,0.,24.0,0.,24.0
1979-07-07 10:52:08.520 ,2,1,0.,24.0,0.,24.0,0.,24.0,0.,24.0
1979-07-07 10:52:32.520 ,6,1,0.,24.0,0.,24.0,0.,24.0,0.,24.0
1979-07-07 10:52:56.520 ,5,1,0.,24.0,0.,24.0,0.,24.0,0.,24.0
1979-07-07 10:53:20.520 ,1,1,0.,24.0,0.,24.0,0.,24.0,0.,24.0
1979-07-07 10:53:44.520 ,0,0,0.,24.0,0.,24.0,0.,24.0,0.,24.0
1979-07-07 10:54:08.520 ,0,0,0.,24.0,0.,24.0,0.,24.0,0.,24.0
1979-07-07 10:54:32.520 ,5,1,0.,24.0,0.,24.0,0.,24.0,0.,24.0
1979-07-07 10:54:56.520 ,5,0,0.,24.0,0.,24.0,0.,24.0,0.,24.0
1979-07-07 10:55:20.520 ,4,1,0.,24.0,0.,24.0,0.,24.0,0.,24.0
1979-07-07 10:55:44.520 ,4,0,0.,24.0,0.,24.0,0.,24.0,0.,24.0
1979-07-07 10:56:08.520 ,3,1,0.,24.0,0.,24.0,0.,24.0,0.,24.0
1979-07-07 10:56:32.520 ,3,0,0.,24.0,0.,24.0,0.,24.0,0.,24.0
1979-07-07 10:56:56.520 ,2,1,0.,24.0,0.,24.0,0.,24.0,0.,24.0
1979-07-07 10:57:20.520 ,2,0,0.,24.0,0.,24.0,0.,24.0,0.,24.0
1979-07-07 10:57:44.520 ,1,1,0.,24.0,0.,24.0,0.,24.0,0.,24.0
1979-07-07 10:58:08.520 ,0,0,0.,24.0,0.,24.0,0.,24.0,0.,24.0
1979-07-07 10:59:23.520 ,0,0,0.,24.0,0.,24.0,0.,24.0,0.,24.0
1979-07-07 10:59:44.520 ,0,0,0.,24.0,0.,24.0,0.,24.0,0.,24.0
1979-07-07 11:00:08.520 ,1,1,0.,24.0,0.,24.0,0.,24.0,0.,24.0
1979-07-07 11:00:32.520 ,1,0,0.,24.0,0.,24.0,0.,24.0,0.,24.0
1979-07-07 11:00:56.520 ,2,1,0.,24.0,0.,24.0,0.,24.0,0.,24.0
1979-07-07 11:01:20.520 ,2,0,0.,24.0,0.,24.0,0.,24.0,0.,24.0
1979-07-07 11:01:44.520 ,3,1,0.,24.0,0.,24.0,0.,24.0,0.,24.0
1979-07-07 11:02:08.520 ,3,0,0.,24.0,0.,24.0,0.,24.0,0.,24.0
1979-07-07 11:02:32.520 ,4,1,0.,24.0,0.,24.0,0.,24.0,0.,24.0
1979-07-07 11:02:56.520 ,4,0,0.,24.0,0.,24.0,0.,24.0,0.,24.0
1979-07-07 11:03:20.520 ,5,1,0.,24.0,0.,24.0,0.,24.0,0.,24.0
1979-07-07 11:03:44.520 ,5,0,0.,24.0,0.,24.0,0.,24.0,0.,24.0
1979-07-07 11:04:08.510 ,6,1,0.,24.0,0.,24.0,0.,24.0,0.,24.0
1979-07-07 11:04:32.510 ,6,0,0.,24.0,0.,24.0,0.,24.0,0.,24.0
1979-07-07 11:04:56.510 ,7,1,0.,24.0,0.,24.0,0.,24.0,0.,24.0
1979-07-07 11:05:20.510 ,7,0,0.,24.0,0.,24.0,0.,24.0,0.,24.0
1979-07-07 11:05:44.510 ,7,1,0.,24.0,0.,24.0,0.,24.0,0.,24.0
1979-07-07 11:06:08.510 ,7,0,0.,24.0,0.,24.0,0.,24.0,0.,24.0
1979-07-07 11:06:32.510 ,6,1,0.,24.0,0.,24.0,0.,24.0,0.,24.0
1979-07-07 11:06:56.510 ,6,0,0.,24.0,0.,24.0,0.,24.0,0.,24.0
1979-07-07 11:07:20.510 ,5,1,0.,24.0,0.,24.0,0.,24.0,0.,24.0
1979-07-07 11:07:44.510 ,5,0,0.,24.0,0.,24.0,0.,24.0,0.,24.0
1979-07-07 11:08:08.510 ,4,1,0.,24.0,0.,24.0,0.,24.0,0.,24.0
1979-07-07 11:08:32.520 ,4,0,0.,24.0,0.,24.0,0.,24.0,0.,24.0
1979-07-07 11:11:20.520 ,0,0,0.,24.0,0.,24.0,0.,24.0,0.,24.0
1979-07-07 11:11:44.520 ,0,0,0.,24.0,0.,24.0,0.,24.0,0.,24.0
1979-07-07 11:12:08.520 ,0,1,0.,24.0,0.,24.0,0.,24.0,0.,24.0
1979-07-07 11:12:32.520 ,0,0,0.,24.0,0.,24.0,0.,24.0,0.,24.0
1979-07-07 11:12:56.520 ,1,1,0.,24.0,0.,24.0,0.,24.0,0.,24.0
1979-07-07 11:13:20.520 ,1,0,0.,24.0,0.,24.0,0.,24.0,0.,24.0
1979-07-07 11:13:44.520 ,2,1,0.,24.0,0.,24.0,0.,24.0,0.,24.0
1979-07-07 11:14:08.520 ,2,0,0.,24.0,0.,24.0,0.,24.0,0.,24.0
1979-07-07 11:14:32.520 ,3,1,0.,24.0,0.,24.0,0.,24.0,0.,24.0
1979-07-07 11:14:56.520 ,3,0,0.,24.0,0.,24.0,0.,24.0,0.,24.0
1979-07-07 11:15:20.520 ,4,1,0.,24.0,0.,24.0,0.,24.0,0.,24.0
1979-07-07 11:15:44.520 ,4,0,0.,24.0,0.,24.0,0.,24.0,0.,24.0
1979-07-07 11:16:08.520 ,5,1,0.,24.0,0.,24.0,0.,24.0,0.,24.0
1979-07-07 11:16:32.520 ,5,0,0.,24.0,0.,24.0,0.,24.0,0.,24.0
1979-07-07 11:16:56.520 ,6,1,0.,24.0,0.,24.0,0.,24.0,0.,24.0
1979-07-07 11:17:20.520 ,6,0,0.,24.0,0.,24.0,0.,24.0,0.,24.0
1979-07-07 11:17:44.520 ,7,1,0.,24.0,0.,24.0,0.,24.0,0.,24.0
1979-07-07 11:18:08.520 ,7,0,0.,24.0,0.,24.0,0.,24.0,0.,24.0
1979-07-07 11:18:32.520 ,7,1,0.,24.0,0.,24.0,0.,24.0,0.,24.0
1979-07-07 11:18:56.520 ,7,0,0.,24.0,0.,24.0,0.,24.0,0.,24.0
1979-07-07 11:19:20.520 ,6,1,0.,24.0,0.,24.0,0.,24.0,0.,24.0
1979-07-07 11:19:44.520 ,6,0,0.,24.0,0.,24.0,0.,24.0,0.,24.0
1979-07-07 11:20:08.520 ,5,1,0.,24.0,0.,24.0,0.,24.0,0.,24.0
1979-07-07 11:20:32.520 ,5,0,0.,24.0,0.,24.0,0.,24.0,0.,24.0
1979-07-07 11:20:56.520 ,4,1,0.,24.0,0.,24.0,0.,24.0,0.,24.0
1979-07-07 11:21:20.520 ,4,0,0.,24.0,0.,24.0,0.,24.0,0.,24.0
1979-07-07 11:21:44.520 ,3,1,0.,24.0,0.,24.0,0.,24.0,0.,24.0
1979-07-07 11:22:08.520 ,3,0,0.,24.0,0.,24.0,0.,24.0,0.,24.0
1979-07-07 11:22:32.520 ,2,1,0.,24.0,0.,24.0,0.,24.0,0.,24.0
1979-07-07 11:22:56.520 ,2,0,0.,24.0,0.,24.0,0.,24.0,0.,24.0
1979-07-07 11:23:20.520 ,1,1,0.,24.0,0.,24.0,0.,24.0,0.,24.0
1979-07-07 11:23:44.520 ,1,0,0.,24.0,0.,24.0,0.,24.0,0.,24.0
1979-07-07 11:24:08.520 ,0,1,0.,24.0,0.,24.0,0.,24.0,0.,24.0
1979-07-07 11:24:32.520 ,0,0,0.,24.0,0.,24.0,0.,24.0,0.,24.0
1979-07-07 11:24:56.520 ,0,1,0.,24.0,0.,24.0,0.,24.0,0.,24.0
1979-07-07 11:25:20.520 ,0,0,0.,24.0,0.,24.0,0.,24.0,0.,24.0
1979-07-07 11:25:44.520 ,1,1,0.,24.0,0.,24.0,0.,24.0,0.,24.0
1979-07-07 11:26:08.520 ,1,0,0.,24.0,0.,24.0,0.,24.0,0.,24.0
1979-07-07 11:26:32.510 ,2,1,0.,24.0,0.,24.0,0.,24.0,0.,24.0
1979-07-07 11:26:56.510 ,2,0,0.,24.0,0.,24.0,0.,24.0,0.,24.0
1979-07-07 11:27:20.510 ,3,1,0.,24.0,0.,24.0,0.,24.0,0.,24.0
1979-07-07 11:27:44.510 ,3,0,0.,24.0,0.,24.0,0.,24.0,0.,24.0
1979-07-07 11:28:08.510 ,4,1,0.,24.0,0.,24.0,0.,24.0,0.,24.0
1979-07-07 11:28:32.510 ,4,0,0.,24.0,0.,24.0,0.,24.0,0.,24.0
1979-07-07 11:28:56.510 ,5,1,0.,24.0,0.,24.0,0.,24.0,0.,24.0
1979-07-07 11:29:20.510 ,5,0,0.,24.0,0.,24.0,0.,24.0,0.,24.0
1979-07-07 11:29:44.510 ,6,1,0.,24.0,0.,24.0,0.,24.0,0.,24.0
1979-07-07 11:30:08.510 ,6,0,0.,24.0,0.,24.0,0.,24.0,0.,24.0
1979-07-07 11:30:32.510 ,7,0,0.,24.0,0.,24.0,0.,24.0,0.,24.0
1979-07-07 11:30:56.510 ,7,0,0.,24.0,0.,24.0,0.,24.0,0.,24.0
1979-07-07 11:31:20.510 ,5,1,0.,24.0,0.,24.0,0.,24.0,0.,24.0
1979-07-07 11:31:44.510 ,1,1,0.,24.0,0.,24.0,0.,24.0,0.,24.0
1979-07-07 11:32:08.510 ,2,1,0.,24.0,0.,24.0,0.,24.0,0.,24.0
1979-07-07 11:32:32.510 ,6,1,0.,24.0,0.,24.0,0.,24.0,0.,24.0
1979-07-07 11:32:56.510 ,5,1,0.,24.0,0.,24.0,0.,24.0,0.,24.0
1979-07-07 11:33:20.510 ,1,1,0.,24.0,0.,24.0,0.,24.0,0.,24.0
1979-07-07 11:33:44.510 ,2,1,0.,24.0,0.,24.0,0.,24.0,0.,24.0
1979-07-07 11:34:08.510 ,6,1,0.,24.0,0.,24.0,0.,24.0,0.,24.0
1979-07-07 11:34:32.510 ,5,1,0.,24.0,0.,24.0,0.,24.0,0.,24.0
1979-07-07 11:34:56.510 ,1,1,0.,24.0,0.,24.0,0.,24.0,0.,24.0
1979-07-07 11:35:20.510 ,2,1,0.,24.0,0.,24.0,0.,24.0,0.,24.0
1979-07-07 11:35:44.510 ,6,1,0.,24.0,0.,24.0,0.,24.0,0.,24.0
1979-07-07 11:36:08.510 ,5,1,0.,24.0,0.,24.0,0.,24.0,0.,24.0
1979-07-07 11:36:32.510 ,1,1,0.,24.0,0.,24.0,0.,24.0,0.,24.0
1979-07-07 11:36:56.510 ,2,1,0.,24.0,0.,24.0,0.,24.0,0.,24.0
1979-07-07 11:37:20.510 ,6,1,0.,24.0,0.,24.0,0.,24.0,0.,24.0
1979-07-07 11:37:44.510 ,5,1,0.,24.0,0.,24.0,0.,24.0,0.,24.0